Temperature
18 18 18 18 17 17 17 17 16 16 16 16 16 15 15 15 16 16 16 16 16 16 16 16 16 16 15 16 15 16 16 16 16 16 15 15 15 15 15 15 14 14 15
18 18 18 17 17 17 17 16 16 16 16 16 16 15 15 15 15 15 15 15 15 15 15 15 15 15 15 15 15 15 15 15 15 15 15 15 14 14 14 14 14 14 14
18 18 17 17 17 17 17 16 16 16 16 16 16 15 15 15 15 15 15 15 15 15 15 15 15 15 15 15 15 15 15 15 15 15 14 14 14 14 14 14 14 14 14
18 17 17 17 17 17 16 16 16 16 16 16 15 15 15 15 15 15 15 15 15 15 15 14 14 14 14 14 14 14 14 14 14 14 14 14 14 14 14 14 14 14 14
17 17 17 17 16 16 16 16 16 15 15 15 15 15 15 15 14 14 15 14 14 14 14 14 14 14 14 14 14 14 14 14 14 14 14 14 14 14 14 14 14 14 14
17 17 17 17 16 16 16 16 15 15 15 15 15 15 14 14 14 14 14 14 14 14 14 14 14 14 14 14 14 14 14 13 13 13 13 13 13 13 13 13 13 14 13
17 17 17 16 16 16 16 15 15 15 15 15 14 14 14 14 14 14 14 14 13 13 13 13 13 13 13 13 13 13 13 13 13 13 13 13 13 13 13 13 13 13 13
17 17 16 16 16 16 15 15 15 15 15 14 14 14 14 14 14 14 14 13 13 13 13 13 13 13 13 13 13 13 12 13 13 12 12 12 12 12 12 12 12 12 12
16 16 16 16 16 15 15 15 15 14 14 14 14 14 13 13 13 13 13 13 13 13 12 12 12 12 12 12 12 12 12 12 12 12 12 12 12 12 12 12 12 12 13
16 16 16 16 15 15 15 15 14 14 14 14 13 13 13 13 13 13 13 13 13 12 12 12 12 12 12 12 12 12 12 12 12 12 12 12 12 12 12 12 12 12 12
15 15 15 15 15 15 14 14 14 14 14 13 13 13 13 12 12 13 12 12 12 12 12 12 12 12 12 12 11 11 11 11 11 11 11 11 11 11 11 11 11 11 11
15 15 15 15 14 14 14 14 14 13 13 13 13 13 13 12 12 12 12 12 12 11 11 11 11 11 11 11 11 11 11 11 11 11 11 11 11 11 11 11 11 11 11
15 14 14 14 14 14 14 14 13 13 13 13 13 13 12 12 12 12 12 11 11 11 11 11 11 11 11 11 11 11 11 11 11 11 11 11 11 11 11 11 11 11 11
14 14 14 13 13 13 13 13 13 13 13 13 13 12 12 12 12 11 11 11 11 11 11 11 11 10 10 10 10 10 10 10 10 10 10 10 10 10 10 10 10 10 10
14 14 13 13 13 13 13 13 13 12 12 12 12 12 12 11 11 11 11 11 11 10 10 10 10 10 10 10 10 10 10 10 10 10 10 10 10 10 10 10 10 10 10
13 13 13 13 13 13 12 12 12 12 12 12 12 11 11 11 11 11 11 10 10 10 10 10 10 10 10 10 10 10 10 10 10 9 9 9 9 9 9 9 9 9 9
13 13 13 13 13 13 12 12 12 12 12 12 11 11 11 11 11 10 10 10 10 10 10 10 10 10 10 10 9 9 9 9 9 9 9 9 9 9 9 9 9 9 9
13 13 12 12 12 12 12 12 12 12 12 12 11 11 11 11 10 10 10 10 10 9 9 9 9 9 9 9 9 9 9 9 9 9 9 9 9 9 9 9 9 8 8
13 12 12 12 12 12 12 12 12 12 11 11 11 11 10 10 10 10 10 9 9 9 9 9 9 9 9 9 9 8 8 8 8 8 8 8 8 8 8 8 8 8 8
12 12 11 11 12 12 12 11 11 11 11 11 11 11 10 10 10 10 9 9 9 9 9 9 8 8 8 8 8 8 8 8 8 8 8 8 8 8 8 8 8 8 8
12 12 12 11 11 11 11 11 11 11 11 11 10 10 10 10 9 9 9 9 8 8 8 8 8 8 8 8 8 8 7 8 8 8 8 7 7 7 7 7 7 7 7
12 12 11 11 11 11 11 11 11 10 10 10 10 10 9 9 9 9 9 8 8 8 8 8 8 8 7 7 7 7 7 7 7 7 7 7 7 7 7 7 7 7 7
11 11 11 11 11 11 10 10 10 10 10 10 10 9 9 9 9 8 8 8 8 7 7 7 7 7 7 7 7 7 7 7 7 7 7 7 7 7 7 7 6 6 7
11 11 11 11 11 11 10 10 10 10 10 9 9 9 9 8 8 8 8 8 7 7 7 7 7 7 7 7 7 7 7 7 7 6 6 6 6 6 6 6 6 6 6
11 11 11 11 11 11 10 10 10 10 9 9 9 9 9 8 8 8 7 7 7 7 7 7 7 7 7 7 6 6 6 6 6 6 6 6 6 6 6 6 6 6 6
11 11 11 11 10 10 10 10 10 9 9 9 9 9 8 8 8 8 7 7 7 7 7 6 6 6 6 6 6 6 6 6 6 6 6 6 6 6 6 6 6 6 6
Wind_Speed
6 5 4 4 3 3 2 1 0 0 0 1 1 2 2 2 2 2 2 2 2 2 2 2 2 2 2 2 1 1 2 2 3 2 1 1 0 1 1 3 4 4 5
5 5 5 4 3 3 2 1 1 1 1 0 1 2 2 2 2 2 3 2 2 2 2 2 2 2 2 2 2 2 2 2 3 2 1 1 1 1 2 3 3 3 3
6 5 4 4 3 3 2 1 1 1 1 0 1 2 2 2 2 2 2 2 3 3 3 3 3 2 2 2 2 2 2 2 2 3 2 1 1 1 2 3 2 2 3
5 5 4 3 3 2 2 2 1 1 1 1 1 1 2 2 2 3 2 2 3 3 3 3 3 3 3 3 3 3 3 3 3 3 2 2 1 1 2 3 3 2 3
5 5 4 3 3 2 2 2 2 1 1 0 1 1 2 2 2 3 3 2 3 3 3 3 3 3 3 3 3 2 3 3 3 3 3 3 2 1 2 3 3 3 3
5 4 4 3 3 2 2 2 2 1 0 1 1 1 2 3 5 4 4 3 3 3 3 3 2 2 1 0 2 2 2 3 3 3 3 3 3 3 3 4 3 4 3
5 4 4 3 2 2 2 2 1 1 1 1 2 2 2 3 4 3 4 4 3 3 3 3 3 2 2 1 1 3 2 2 3 4 4 4 4 3 3 4 3 4 4
4 4 4 3 3 3 2 2 1 1 1 1 2 2 2 2 3 3 3 3 2 2 2 2 2 2 3 3 3 2 2 2 3 4 3 4 3 3 4 5 4 4 5
4 3 3 3 3 2 2 1 1 1 0 0 1 2 2 2 3 3 4 2 2 2 2 2 2 2 3 4 2 2 2 1 1 1 2 2 2 3 4 4 4 5 4
3 3 2 2 2 2 1 1 1 1 0 0 1 2 2 2 3 2 4 2 2 2 1 1 2 3 3 3 2 2 2 1 1 1 1 3 3 4 5 5 5 5 5
3 3 3 2 2 2 2 1 1 1 1 1 1 1 1 2 3 3 4 3 3 3 2 2 2 4 2 2 3 2 2 3 3 3 2 3 3 2 3 3 3 4 5
3 3 3 2 1 2 2 1 1 0 1 1 1 1 1 1 2 3 3 4 5 3 3 3 3 3 0 2 2 1 2 4 4 3 3 3 3 2 2 2 2 3 4
2 2 2 2 2 1 1 1 1 1 1 1 1 1 1 1 1 2 1 1 3 3 2 4 3 1 3 3 3 3 5 5 4 4 4 4 3 3 3 2 3 3 4
3 2 2 2 2 1 0 0 0 1 1 1 2 2 2 1 2 2 1 1 2 2 2 1 3 4 4 2 2 4 4 3 4 5 4 4 3 3 3 3 3 3 3
3 2 2 2 2 1 1 0 0 1 1 2 2 2 2 2 2 3 3 3 3 3 4 2 2 2 2 2 2 3 3 3 4 4 4 4 3 3 3 3 3 3 3
2 2 2 2 2 2 2 2 2 2 2 1 1 3 2 2 1 1 2 3 3 4 4 2 2 2 3 3 3 3 3 3 3 3 3 3 3 3 3 3 3 3 4
2 2 2 1 2 2 2 2 2 3 5 5 4 3 2 1 1 2 3 3 3 4 4 3 3 3 3 3 4 4 3 2 3 3 3 3 3 3 3 3 3 3 3
2 2 2 2 2 3 3 3 3 3 2 2 5 7 5 4 4 4 4 4 3 3 4 4 4 4 4 4 4 3 3 3 3 4 4 4 4 3 3 3 3 3 4
2 2 2 2 2 3 3 4 4 4 4 3 2 3 5 6 7 6 5 4 4 4 4 4 4 4 4 4 4 4 4 4 4 4 4 4 4 4 4 4 4 3 5
2 2 3 3 3 3 3 4 4 4 4 4 3 2 1 2 3 2 3 4 4 4 4 4 4 4 4 4 4 4 4 4 4 4 4 4 4 4 4 5 5 5 5
3 3 5 4 3 3 3 4 4 5 4 4 3 1 2 4 4 3 3 4 4 4 4 4 4 4 4 4 4 4 5 5 4 4 4 4 4 4 4 5 5 5 5
3 3 3 3 3 3 4 4 4 4 4 5 4 2 4 5 4 3 3 4 4 4 4 4 4 4 4 4 4 5 5 5 4 4 4 4 4 5 5 5 5 5 5
3 4 4 3 3 3 4 4 4 4 5 4 4 4 4 4 3 3 3 4 4 4 4 4 4 5 5 5 4 5 5 5 4 4 5 5 5 5 5 5 6 6 6
4 4 4 3 4 4 4 4 4 4 4 4 4 4 4 4 4 3 4 4 4 4 4 4 5 5 6 6 5 6 5 5 5 5 6 6 6 6 6 6 6 6 6
5 5 4 4 4 4 5 5 4 4 4 4 4 4 4 4 4 4 4 3 4 5 5 5 5 6 7 7 7 6 3 3 5 6 6 6 7 7 7 7 6 7 7
5 5 4 4 4 5 5 4 4 4 4 4 4 3 4 4 4 4 4 4 4 4 5 5 6 7 7 7 6 4 3 3 5 7 7 7 7 7 7 7 8 7 7
Wind_Direction
163 155 148 153 157 162 160 173 180 288 316 313 303 298 300 310 312 303 298 309 306 308 305 304 293 303 288 271 260 260 267 263 258 281 304 61 71 301 235 233 219 206 170
156 154 152 150 156 166 162 176 173 185 242 345 337 315 301 312 318 305 301 312 306 306 307 304 292 274 267 274 265 265 263 268 258 265 281 268 239 237 253 254 231 211 200
151 153 148 153 156 164 167 171 170 184 259 330 2 347 332 330 330 324 320 318 310 307 307 303 298 294 285 272 262 259 252 242 246 242 256 281 273 273 266 256 246 246 233
151 152 150 152 156 168 169 167 171 192 233 282 333 350 341 335 350 339 321 305 306 313 315 310 302 293 282 270 249 242 245 244 238 244 247 247 256 273 264 259 247 225 249
154 158 157 158 165 177 175 171 176 207 231 251 307 328 323 317 355 350 329 304 296 300 310 309 309 323 330 312 296 267 239 238 238 240 244 250 243 258 267 266 254 251 238
160 158 153 157 166 179 187 186 181 183 255 292 293 306 316 337 27 1 330 321 307 295 301 301 292 290 315 252 341 332 304 252 251 254 253 248 251 256 263 265 265 262 264
161 157 152 159 166 179 181 170 175 190 211 264 299 310 325 357 26 1 334 309 305 315 317 317 311 329 325 291 206 208 233 253 258 260 261 263 261 261 270 260 262 275 283
152 153 154 166 176 181 179 173 189 230 248 280 310 312 315 354 26 343 314 282 298 315 313 316 321 330 348 325 273 248 233 220 230 245 263 270 279 285 270 267 266 259 251
149 150 154 164 163 164 167 166 185 230 272 331 328 319 327 360 31 351 311 290 294 299 303 320 321 320 15 342 286 258 250 236 128 83 333 323 334 294 282 268 259 260 260
151 153 156 154 149 137 120 118 101 113 95 34 40 356 344 351 38 2 314 299 311 307 313 321 28 18 30 346 282 268 261 288 298 222 227 229 234 222 225 250 261 265 271
141 142 141 137 139 123 111 112 111 84 74 61 55 15 15 22 56 42 344 319 319 313 321 327 37 84 49 343 304 291 322 310 274 256 252 251 246 243 242 240 261 274 277
135 138 137 138 130 117 117 116 99 97 151 113 66 4 37 58 52 52 21 351 336 322 327 337 22 76 18 278 282 351 308 279 266 263 268 271 271 273 272 266 266 278 281
123 120 119 122 119 126 146 145 165 197 296 346 346 349 7 31 75 120 131 331 322 312 336 15 9 262 234 238 225 247 253 256 264 269 274 277 277 286 289 270 247 242 255
129 131 140 149 147 128 127 92 3 349 332 328 326 325 339 354 349 347 325 287 240 268 299 268 216 227 242 267 244 234 249 270 278 278 280 278 274 266 263 269 269 263 262
134 147 166 172 157 160 173 353 254 353 348 309 312 318 318 311 2 6 320 316 322 327 306 283 284 280 271 268 269 271 268 264 268 274 276 277 277 276 278 284 282 284 285
166 177 184 185 182 200 195 185 148 186 142 169 320 306 304 351 39 6 337 331 329 310 286 279 286 287 287 292 290 287 279 281 287 286 283 287 287 284 285 280 275 274 281
206 220 221 210 207 225 227 232 233 196 186 190 202 228 266 298 263 257 262 265 262 264 267 280 284 289 294 296 295 293 289 293 295 285 283 282 282 282 280 281 284 284 279
219 210 243 246 238 244 248 251 259 268 262 243 200 191 199 212 222 237 246 246 248 244 273 282 283 286 290 294 295 293 293 291 280 280 280 280 281 284 287 288 291 298 293
218 231 255 268 261 258 262 266 270 271 276 279 275 189 188 202 207 217 227 258 276 277 280 280 280 282 285 294 298 294 291 286 285 283 280 281 281 281 283 283 282 272 280
215 198 250 266 264 265 273 281 283 280 275 275 275 293 283 266 270 243 240 266 278 280 281 281 282 285 290 294 293 288 285 283 280 276 280 279 278 278 278 278 280 280 279
238 209 206 245 265 274 278 278 283 286 287 284 281 303 276 274 274 265 259 262 271 277 278 277 276 274 271 277 283 283 283 284 282 283 286 286 288 288 288 285 283 283 284
252 252 251 259 269 273 277 275 277 281 285 284 287 270 221 262 278 276 270 267 266 268 275 275 273 275 280 279 281 284 284 284 284 283 283 285 284 279 277 278 281 288 289
258 255 251 256 266 258 257 269 275 278 278 278 279 276 261 268 277 279 275 271 270 269 271 274 276 278 279 280 278 276 278 280 282 285 283 279 276 274 275 275 275 276 279
258 259 262 264 267 268 267 270 273 276 278 276 274 273 270 264 264 268 272 275 275 275 276 277 276 276 278 279 275 271 277 290 286 276 273 274 274 274 272 270 270 273 276
260 259 259 261 264 267 269 271 274 274 274 272 272 273 274 273 271 273 276 276 277 278 282 283 279 279 280 275 275 280 301 304 286 281 268 266 266 268 269 268 267 270 271
264 265 264 264 270 276 276 275 277 279 278 276 275 277 277 274 272 276 279 280 283 284 284 284 285 285 283 275 277 289 285 267 263 269 267 263 263 265 267 265 266 266 271
Height
1516 1517 1518 1519 1520 1520 1521 1521 1521 1520 1519 1518 1518 1517 1517 1516 1515 1514 1513 1512 1511 1511 1510 1510 1509 1509 1509 1510 1510 1510 1510 1511 1511 1511 1511 1511 1510 1510 1511 1511 1512 1512 1512
1514 1515 1516 1517 1518 1519 1520 1520 1519 1519 1518 1517 1517 1516 1515 1514 1513 1512 1512 1511 1510 1510 1509 1509 1508 1508 1507 1508 1508 1508 1508 1509 1509 1509 1509 1509 1509 1509 1509 1509 1510 1511 1510
1513 1515 1516 1517 1517 1518 1518 1518 1518 1518 1517 1517 1516 1515 1514 1513 1512 1511 1510 1509 1509 1508 1508 1507 1507 1506 1506 1506 1506 1506 1507 1507 1507 1507 1507 1508 1508 1508 1508 1508 1508 1508 1509
1512 1514 1515 1516 1516 1517 1517 1517 1517 1516 1516 1515 1515 1514 1513 1512 1511 1510 1509 1508 1507 1506 1506 1505 1505 1504 1504 1503 1504 1503 1504 1504 1505 1505 1505 1506 1506 1506 1506 1506 1506 1506 1506
1511 1512 1513 1514 1515 1515 1516 1516 1515 1515 1515 1514 1513 1513 1512 1511 1510 1508 1507 1507 1505 1505 1504 1503 1503 1502 1501 1501 1502 1501 1502 1502 1503 1503 1503 1503 1504 1504 1504 1504 1504 1504 1504
1510 1511 1512 1513 1513 1513 1514 1514 1514 1514 1513 1513 1512 1512 1511 1510 1508 1507 1506 1505 1504 1503 1502 1501 1500 1500 1499 1498 1498 1499 1499 1499 1500 1500 1501 1501 1501 1501 1502 1502 1502 1502 1503
1508 1509 1510 1511 1511 1512 1513 1513 1513 1513 1512 1511 1511 1510 1509 1508 1506 1505 1504 1503 1502 1501 1500 1499 1499 1498 1497 1497 1496 1496 1496 1497 1497 1497 1498 1498 1498 1499 1499 1499 1499 1500 1500
1506 1507 1508 1509 1510 1510 1511 1510 1511 1511 1510 1510 1510 1509 1508 1506 1505 1503 1502 1502 1501 1500 1499 1498 1497 1496 1496 1495 1495 1495 1495 1494 1494 1495 1495 1495 1496 1495 1496 1497 1497 1497 1497
1505 1506 1506 1507 1508 1508 1509 1508 1508 1509 1508 1508 1508 1507 1506 1505 1503 1502 1501 1500 1499 1498 1497 1496 1495 1494 1493 1493 1493 1493 1493 1493 1493 1492 1492 1492 1492 1492 1493 1494 1494 1495 1495
1503 1504 1505 1505 1506 1506 1506 1506 1507 1506 1506 1506 1505 1506 1505 1503 1501 1500 1499 1499 1498 1497 1495 1494 1493 1492 1491 1491 1491 1491 1491 1491 1491 1490 1490 1489 1489 1489 1490 1490 1491 1492 1492
1501 1502 1503 1504 1505 1505 1505 1505 1505 1505 1505 1504 1503 1504 1503 1502 1500 1499 1498 1497 1497 1496 1495 1493 1492 1490 1489 1489 1489 1489 1489 1489 1489 1489 1488 1488 1488 1487 1488 1488 1488 1488 1489
1500 1501 1502 1503 1504 1504 1504 1504 1504 1504 1504 1503 1503 1503 1502 1500 1499 1497 1496 1495 1495 1494 1493 1492 1491 1489 1488 1487 1487 1487 1487 1487 1487 1487 1487 1486 1486 1486 1486 1485 1485 1485 1485
1500 1500 1501 1501 1502 1503 1503 1503 1503 1503 1503 1502 1502 1502 1501 1499 1498 1496 1495 1494 1493 1492 1491 1490 1489 1487 1486 1486 1485 1485 1485 1485 1486 1486 1485 1485 1484 1483 1483 1483 1482 1482 1482
1499 1499 1500 1501 1501 1501 1501 1501 1501 1502 1501 1501 1501 1500 1499 1498 1497 1495 1494 1493 1492 1491 1490 1489 1487 1486 1485 1485 1484 1484 1483 1483 1483 1483 1483 1482 1482 1481 1480 1480 1480 1480 1480
1498 1499 1499 1500 1500 1500 1500 1500 1500 1500 1499 1499 1499 1499 1498 1496 1495 1494 1493 1492 1491 1490 1488 1488 1487 1486 1485 1484 1483 1483 1482 1482 1481 1481 1480 1480 1479 1479 1478 1478 1478 1478 1477
1497 1498 1498 1499 1499 1499 1499 1498 1497 1497 1496 1496 1496 1496 1495 1494 1493 1492 1491 1490 1489 1488 1487 1486 1485 1484 1483 1482 1482 1481 1480 1479 1479 1478 1478 1477 1477 1477 1476 1476 1475 1475 1475
1496 1497 1497 1497 1497 1497 1497 1496 1496 1495 1494 1493 1493 1492 1492 1491 1490 1489 1489 1488 1487 1486 1485 1485 1484 1483 1482 1481 1480 1479 1478 1477 1476 1476 1476 1476 1475 1475 1474 1473 1473 1472 1472
1495 1495 1495 1495 1495 1495 1495 1494 1494 1493 1492 1491 1490 1489 1489 1488 1487 1487 1486 1485 1485 1484 1483 1482 1481 1481 1480 1478 1477 1477 1476 1475 1474 1474 1473 1473 1473 1472 1472 1471 1470 1469 1469
1493 1494 1494 1494 1493 1493 1493 1492 1492 1491 1490 1489 1488 1487 1486 1485 1484 1484 1483 1483 1483 1482 1481 1480 1479 1478 1477 1476 1475 1474 1473 1473 1472 1471 1471 1470 1470 1469 1469 1468 1467 1466 1466
1491 1491 1491 1491 1491 1491 1490 1490 1489 1488 1487 1486 1486 1485 1484 1483 1482 1481 1480 1480 1479 1479 1478 1477 1476 1475 1474 1473 1472 1471 1471 1470 1469 1468 1468 1468 1467 1466 1466 1465 1464 1464 1463
1489 1488 1488 1488 1488 1488 1487 1487 1486 1486 1485 1484 1483 1482 1480 1480 1479 1478 1477 1477 1476 1475 1475 1474 1473 1472 1471 1470 1469 1469 1468 1467 1466 1466 1465 1465 1464 1463 1463 1462 1461 1460 1460
1486 1486 1486 1486 1485 1485 1484 1484 1483 1482 1482 1481 1480 1479 1477 1477 1476 1475 1474 1473 1473 1472 1471 1470 1469 1468 1468 1467 1466 1465 1465 1464 1463 1462 1462 1461 1460 1460 1459 1458 1457 1457 1456
1484 1483 1483 1483 1482 1482 1481 1481 1480 1479 1479 1478 1477 1476 1474 1473 1472 1471 1470 1470 1469 1468 1467 1466 1465 1464 1464 1463 1462 1462 1461 1460 1459 1458 1457 1457 1456 1456 1455 1454 1454 1453 1453
1481 1481 1480 1480 1480 1480 1479 1479 1478 1477 1476 1474 1473 1472 1471 1470 1469 1468 1467 1466 1465 1464 1463 1462 1461 1460 1459 1459 1458 1458 1457 1456 1455 1454 1453 1452 1452 1452 1451 1450 1450 1450 1449
1478 1478 1478 1478 1478 1477 1477 1476 1475 1474 1473 1471 1470 1469 1468 1467 1466 1464 1463 1462 1461 1460 1458 1458 1457 1456 1455 1454 1453 1453 1452 1451 1450 1449 1448 1448 1448 1447 1447 1447 1446 1446 1446
1475 1475 1475 1475 1475 1474 1473 1472 1471 1470 1469 1468 1467 1465 1464 1463 1462 1461 1459 1458 1457 1455 1454 1453 1452 1451 1450 1449 1449 1448 1447 1446 1445 1444 1444 1444 1443 1443 1443 1443 1443 1442 1442